Weather History for Rickenbacker, OH

Change the Weather History Date:

Sunday, November 25, 2012

  Actual Average Record
Temperature  
Mean Temperature 37 °F -  
Max Temperature 45 °F 48 °F 68 °F (2006)
Min Temperature 29 °F 32 °F 10 °F (2005)
Degree Days  
Heating Degree Days 28    
Moisture  
Dew Point 21 °F    
Average Humidity 55    
Maximum Humidity 67    
Minimum Humidity 37    
Precipitation  
Precipitation 0.00 in - - ()
Sea Level Pressure  
Sea Level Pressure 29.99 in    
Wind  
Wind Speed 8 mph (SW)    
Max Wind Speed 21 mph    
Max Gust Speed 25 mph    
Visibility 10 miles    
Events      
Averages and records for this station are not official NWS values.
T = Trace of Precipitation, MM = Missing Value Source: NWS Daily Summary

Daily Weather History Graph

Daily Weather History Graph

Search for Another Location

Airport:

Trip Planner

Search our weather history database for the weather conditions in past years. The results will help you decide how hot, cold, wet, or windy it might be!

Date:

Astronomy

Nov. 25, 2012 Rise Set
Actual Time 7:28 AM EST 5:09 PM EST
Civil Twilight 6:58 AM EST 5:38 PM EST
Nautical Twilight 6:25 AM EST 6:12 PM EST
Astronomical Twilight 5:52 AM EST 6:44 PM EST
Moon 3:25 PM EST (11/25) 4:41 AM EST (11/25)
Length of Visible Light 10h 40m
Length of Day
9h 41m
Waxing Gibbous, 93% of the Moon is Illuminated
Nov 25
Waxing Gibbous
Nov 28
Full
Dec 6
Last Quarter
Dec 13
New
Dec 20
First Quarter

Hourly Weather History & Observations

Time (EST) Temp. Windchill Dew Point Humidity Pressure Visibility Wind Dir Wind Speed Gust Speed Precip Events Conditions
12:15 AM 32.0 °F 25.6 °F 19.0 °F 59% 30.10 in 10.0 mi WSW 6.9 mph - N/A   Overcast
12:35 AM 32.0 °F 26.4 °F 18.9 °F 58% 30.10 in 10.0 mi SW 5.8 mph - N/A   Overcast
12:55 AM 32.0 °F 24.8 °F 18.5 °F 58% 30.10 in 10.0 mi WSW 8.1 mph - N/A   Mostly Cloudy
1:15 AM 30.4 °F 25.6 °F 18.5 °F 61% 30.09 in 10.0 mi SW 4.6 mph - N/A   Scattered Clouds
1:35 AM 29.3 °F 25.6 °F 18.5 °F 64% 30.09 in 10.0 mi SSW 3.5 mph - N/A   Clear
1:55 AM 29.5 °F 25.9 °F 19.2 °F 66% 30.08 in 10.0 mi SSW 3.5 mph - N/A   Clear
2:15 AM 30.2 °F 26.7 °F 19.9 °F 66% 30.08 in 10.0 mi South 3.5 mph - N/A   Clear
2:35 AM 30.6 °F 27.1 °F 19.9 °F 65% 30.09 in 10.0 mi South 3.5 mph - N/A   Scattered Clouds
2:55 AM 30.2 °F - 20.1 °F 66% 30.08 in 10.0 mi Calm Calm - N/A   Mostly Cloudy
3:15 AM 30.2 °F 26.7 °F 20.5 °F 67% 30.07 in 10.0 mi South 3.5 mph - N/A   Overcast
3:35 AM 30.2 °F 24.3 °F 20.1 °F 66% 30.06 in 10.0 mi SSW 5.8 mph - N/A   Overcast
3:55 AM 30.0 °F 24.1 °F 19.9 °F 66% 30.06 in 10.0 mi SSW 5.8 mph - N/A   Overcast
4:15 AM 30.0 °F 25.2 °F 19.9 °F 66% 30.06 in 10.0 mi SSW 4.6 mph - N/A   Mostly Cloudy
4:35 AM 30.2 °F 24.3 °F 20.1 °F 66% 30.05 in 10.0 mi South 5.8 mph - N/A   Scattered Clouds
4:55 AM 30.2 °F 24.3 °F 20.1 °F 66% 30.06 in 10.0 mi South 5.8 mph - N/A   Clear
5:15 AM 30.6 °F 24.7 °F 19.6 °F 64% 30.04 in 10.0 mi South 5.8 mph - N/A   Clear
5:35 AM 30.6 °F 23.8 °F 19.8 °F 64% 30.04 in 10.0 mi South 6.9 mph - N/A   Scattered Clouds
5:55 AM 30.7 °F 24.1 °F 19.6 °F 63% 30.05 in 10.0 mi South 6.9 mph - N/A   Scattered Clouds
6:15 AM 30.9 °F 22.2 °F 19.8 °F 63% 30.03 in 10.0 mi South 10.4 mph - N/A   Scattered Clouds
6:35 AM 31.1 °F 21.9 °F 19.8 °F 63% 30.03 in 10.0 mi South 11.5 mph - N/A   Scattered Clouds
6:55 AM 31.5 °F 22.3 °F 19.4 °F 61% 30.03 in 10.0 mi South 11.5 mph 17.3 mph N/A   Mostly Cloudy
7:15 AM 31.5 °F 21.8 °F 19.4 °F 61% 30.03 in 10.0 mi South 12.7 mph - N/A   Overcast
7:35 AM 31.5 °F 22.3 °F 19.6 °F 62% 30.01 in 10.0 mi South 11.5 mph - N/A   Mostly Cloudy
7:55 AM 31.5 °F 22.9 °F 19.9 °F 62% 30.00 in 10.0 mi South 10.4 mph - N/A   Overcast
8:15 AM 31.8 °F 22.3 °F 19.9 °F 62% 30.01 in 10.0 mi South 12.7 mph - N/A   Overcast
8:35 AM 31.8 °F 21.8 °F 20.3 °F 62% 30.00 in 10.0 mi South 13.8 mph - N/A   Overcast
8:55 AM 32.0 °F 23.0 °F 20.3 °F 62% 30.00 in 10.0 mi South 11.5 mph - N/A   Overcast
9:15 AM 32.2 °F 22.3 °F 20.7 °F 63% 29.99 in 10.0 mi South 13.8 mph - N/A   Overcast
9:35 AM 32.7 °F 23.0 °F 20.8 °F 62% 29.99 in 10.0 mi South 13.8 mph - N/A   Overcast
9:55 AM 33.6 °F 24.1 °F 21.2 °F 60% 29.98 in 10.0 mi South 13.8 mph - N/A   Overcast
10:15 AM 34.3 °F 24.6 °F 21.2 °F 59% 29.98 in 10.0 mi South 15.0 mph - N/A   Mostly Cloudy
10:35 AM 35.6 °F 27.1 °F 21.6 °F 57% 29.97 in 10.0 mi SSW 12.7 mph - N/A   Mostly Cloudy
10:55 AM 37.2 °F 29.6 °F 21.6 °F 53% 29.97 in 10.0 mi SSW 11.5 mph 19.6 mph N/A   Overcast
11:15 AM 38.5 °F 28.3 °F 20.5 °F 48% 29.96 in 10.0 mi SSW 20.7 mph 24.2 mph N/A   Overcast
11:35 AM 39.0 °F 29.9 °F 19.9 °F 46% 29.95 in 10.0 mi SW 17.3 mph 23.0 mph N/A   Scattered Clouds
11:55 AM 40.6 °F 32.7 °F 20.5 °F 45% 29.94 in 10.0 mi SW 15.0 mph - N/A   Scattered Clouds
12:15 PM 42.8 °F 34.8 °F 20.8 °F 42% 29.92 in 10.0 mi SW 17.3 mph 21.9 mph N/A   Overcast
12:35 PM 43.7 °F 35.7 °F 19.8 °F 38% 29.91 in 10.0 mi SW 18.4 mph 24.2 mph N/A   Overcast
12:55 PM 43.5 °F 36.4 °F 20.1 °F 39% 29.90 in 10.0 mi SW 15.0 mph 23.0 mph N/A   Scattered Clouds
1:15 PM 43.3 °F 36.5 °F 20.5 °F 40% 29.90 in 10.0 mi WSW 13.8 mph 21.9 mph N/A   Clear
1:35 PM 45.0 °F 38.5 °F 21.0 °F 39% 29.90 in 10.0 mi SW 13.8 mph 20.7 mph N/A   Clear
1:55 PM 45.5 °F 38.3 °F 20.5 °F 37% 29.88 in 10.0 mi SW 17.3 mph 25.3 mph N/A   Clear
2:15 PM 45.7 °F 38.8 °F 20.7 °F 37% 29.89 in 10.0 mi SW 16.1 mph - N/A   Clear
2:35 PM 44.8 °F 38.0 °F 20.8 °F 39% 29.88 in 10.0 mi WSW 15.0 mph 18.4 mph N/A   Clear
2:55 PM 44.4 °F 38.2 °F 21.4 °F 40% 29.88 in 10.0 mi WSW 12.7 mph - N/A   Clear
3:15 PM 45.9 °F 40.8 °F 21.2 °F 38% 29.88 in 10.0 mi SW 10.4 mph - N/A   Clear
3:35 PM 45.9 °F 40.4 °F 21.2 °F 38% 29.89 in 10.0 mi WSW 11.5 mph - N/A   Clear
3:55 PM 45.1 °F 40.3 °F 21.7 °F 40% 29.89 in 10.0 mi SW 9.2 mph - N/A   Clear
4:15 PM 44.6 °F 38.4 °F 22.5 °F 42% 29.91 in 10.0 mi SW 12.7 mph - N/A   Clear
4:35 PM 43.5 °F 37.9 °F 22.3 °F 43% 29.91 in 10.0 mi SW 10.4 mph - N/A   Clear
4:55 PM 43.3 °F 37.7 °F 21.9 °F 43% 29.92 in 10.0 mi SW 10.4 mph - N/A   Clear
5:15 PM 42.6 °F 37.2 °F 21.9 °F 44% 29.92 in 10.0 mi SW 9.2 mph - N/A   Clear
5:35 PM 41.5 °F 37.1 °F 22.1 °F 46% 29.92 in 10.0 mi SW 6.9 mph - N/A   Clear
5:55 PM 40.3 °F 34.9 °F 22.8 °F 50% 29.92 in 10.0 mi WSW 8.1 mph - N/A   Clear
6:15 PM 39.7 °F 35.6 °F 23.0 °F 51% 29.93 in 10.0 mi SW 5.8 mph - N/A   Clear
6:35 PM 38.7 °F 34.3 °F 23.2 °F 54% 29.94 in 10.0 mi SW 5.8 mph - N/A   Clear
6:55 PM 39.6 °F 36.3 °F 23.2 °F 52% 29.94 in 10.0 mi SSW 4.6 mph - N/A   Clear
7:15 PM 39.2 °F 34.2 °F 23.0 °F 52% 29.95 in 10.0 mi SW 6.9 mph - N/A   Clear
7:35 PM 38.3 °F 33.9 °F 23.0 °F 54% 29.95 in 10.0 mi SSW 5.8 mph - N/A   Clear
7:55 PM 38.3 °F 34.8 °F 23.4 °F 55% 29.97 in 10.0 mi SW 4.6 mph - N/A   Clear
8:15 PM 38.1 °F 35.7 °F 23.7 °F 56% 29.97 in 10.0 mi SW 3.5 mph - N/A   Clear
8:35 PM 37.4 °F 33.8 °F 24.3 °F 59% 29.98 in 10.0 mi WSW 4.6 mph - N/A   Clear
8:55 PM 37.4 °F 34.9 °F 24.3 °F 59% 29.98 in 10.0 mi SW 3.5 mph - N/A   Clear
9:15 PM 37.2 °F 33.6 °F 25.2 °F 62% 29.98 in 10.0 mi WSW 4.6 mph - N/A   Clear
9:35 PM 37.6 °F - 25.5 °F 62% 29.98 in 10.0 mi Calm Calm - N/A   Clear
9:55 PM 38.1 °F 34.6 °F 25.3 °F 60% 29.98 in 10.0 mi SW 4.6 mph - N/A   Clear
10:15 PM 37.8 °F 35.3 °F 25.7 °F 62% 29.98 in 10.0 mi SW 3.5 mph - N/A   Clear
10:35 PM 37.2 °F 33.6 °F 25.7 °F 63% 29.99 in 10.0 mi WSW 4.6 mph - N/A   Clear
10:55 PM 36.9 °F 33.1 °F 25.7 °F 64% 29.99 in 10.0 mi SW 4.6 mph - N/A   Clear
11:15 PM 37.0 °F 33.3 °F 26.1 °F 65% 30.01 in 10.0 mi WSW 4.6 mph - N/A   Clear
11:35 PM 36.9 °F 33.1 °F 26.4 °F 66% 30.01 in 10.0 mi West 4.6 mph - N/A   Clear
11:55 PM 38.3 °F 34.8 °F 26.2 °F 62% 30.01 in 10.0 mi West 4.6 mph - N/A   Mostly Cloudy